Погода в Голобах

Украина / Волынская область     51˚04′57″N   25˚00′39″E
темп.,
°C
ветер,
м/с
пор.,
м/с
влажн.,
%
обл.,
%
осадки,
мм/ч
давл.,
гПа
погр.,
м
6 декабря, вс
вс623:00+5˚юв715869 0.0 1022642
02:00+5˚юв8148238 0.0 1023688
05:00+4˚юв8147998 0.0 1023754
08:00+3˚юв8138096 0.0 1024704
11:00+3˚юв91378100 0.0 1025718
14:00+2˚юв91373100 0.0 1024707
17:00+1˚юв8166923 0.0 1024698
20:00юв9176611 0.0 1024689
7 декабря, пн
пн723:00−1˚юв918550 0.0 1024685
02:00−1˚юв918530 0.0 1024690
05:00−2˚юв917530 0.0 1023711
08:00−2˚юв917560 0.0 1023710
11:00−1˚юв10165211 0.0 1023773
14:00юв10154829 0.0 1022882
17:00−1˚вюв9156036 0.0 1022761
20:00−3˚вюв9156623 0.0 1023734
8 декабря, вт
вт823:00−3˚юв9166818 0.0 1023821
02:00−3˚юв9147658 0.0 1022852
05:00−2˚юв81377100 0.0 1022781
08:00−3˚вюв7137496 0.0 1022642
11:00−2˚юв8126241 0.0 1022633
14:00−1˚вюв6116021 0.0 1022679
17:00−3˚вюв6126728 0.0 1023562
20:00−3˚вюв7126842 0.0 1024499
9 декабря, ср
ср923:00−3˚вюв6107097 0.0 1024507
02:00−4˚вюв6117666 0.0 1024475
05:00−3˚вюв6118251 0.0 1024479
08:00−3˚вюв5118173 0.0 1024513
11:00−2˚вюв697055 0.0 1024547
14:00−2˚вюв6106859 0.0 1022516
17:00−3˚вюв7117996 0.0 1021514
20:00−3˚вюв6118495 0.0 1021537
10 декабря, чт
чт1023:00−2˚вюв7118499 0.0 1020486
02:00−1˚вюв7138699 0.1 1019483
05:00вюв71388100 0.0 1017520
08:00+1˚вюв81590100 0.1 1017553
11:00+2˚вюв71494100 2.9 1017525
14:00+3˚вюв71494100 5.0 1016488
17:00+3˚вюв51295100 0.1 1016373
20:00+4˚вюв51196100 0.4 1016342